Tracking 30923 objects as of 1-Jul-2025
HD Live streaming from Space Station
objects crossing your sky now

USA 386

Track USA 386 now!
10-day predictions


NORAD ID: 60169
Int'l Code: 2024-121M
Perigee: 582.5 km
Apogee: 585.9 km
Inclination: 70.0 °
Period: 96.2 minutes
Semi major axis: 6955 km
RCS: Unknown
Launch date: June 29, 2024
Source: United States (US)
Launch site: AIR FORCE WESTERN TEST RANGE (AFWTR)
Your satellite tracking list
STARLINK-1993
Track 1 satellite(s)




NASA's NSSDC Master Catalog

Two Line Element Set (TLE):
1 60169U 24121M   25167.96538941 0.00000020  00000-0  17463-5 0    09
2 60169  69.9920 225.0313 0002422 114.3550 245.6450 14.96714923    06
Source of the keplerian elements: McCants